Location: Unspecified
(17.6330°N, 0.0000°E)
Time: 19:16:09
(UTC+00:00)

S-56A Canister/Altair - Pass Details

Date: 25 June 2019
Orbit: 632 x 2500 km, 38.9° (Epoch: 20 July)

Event Time Altitude Azimuth Distance (km) Brightness Sun altitude
Rises 09:34:37 0° 191° (SSW) 6,084 12.0 55.0°
Reaches altitude 10° 09:40:38 10° 175° (S) 5,154 11.8 56.3°
Maximum altitude 09:49:37 18° 137° (SE) 4,397 11.8 58.4°
Drops below altitude 10° 09:57:57 10° 100° (E) 4,785 12.2 60.3°
Sets 10:03:03 0° 83° (E) 5,515 12.3 61.5°
